Regional Weather Roundup
Issued by NWS

Home | Current Version | Previous Version | Graphics & Text | Print | Product List | Glossary On
Versions: 1 2 3 4 5 6 7 8 9 10 11 12 13 14 15 16 17 18 19 20 21 22 23 24 25 26 27 28 29 30 31 32 33 34 35 36 37 38 39 40 41 42 43 44 45 46 47 48 49 50
000
ASUS43 KMKX 211700
RWRWI

WISCONSIN REGIONAL WEATHER ROUNDUP
NATIONAL WEATHER SERVICE MILWAUKEE/SULLIVAN WI
1200 PM CDT SAT OCT 21 2017

NOTE: "FAIR" INDICATES FEW OR NO CLOUDS BELOW 12,000 FEET WITH NO
SIGNIFICANT WEATHER AND/OR OBSTRUCTIONS TO VISIBILITY.

WIZ001-002-006>008-014>016-023>028-211800-
NORTHWEST WISCONSIN

CITY           SKY/WX    TMP DP  RH WIND       PRES   REMARKS
SUPERIOR ARPT  CLOUDY    60  58  92 S12       29.68F
ASHLAND        PTSUNNY   65  55  70 S20G37    29.74S
HAYWARD        LGT RAIN  60  56  86 S13G21    29.75R
SIREN          LGT RAIN  60  58  92 S12G17    29.70F
CUMBERLAND     LGT RAIN  57  55  94 S17G26    29.74S
RICE LAKE      RAIN      59  56  92 SE15G23   29.76S
CHETEK         DRIZZLE   59  57  95 SE13G21   29.78S
LADYSMITH      DRIZZLE   60  56  86 S8G18     29.81F
EAU CLAIRE     NOT AVBL
MENOMONIE      LGT RAIN  59  59 100 SE9       29.79S
NEW RICHMOND   LGT RAIN  59  58  96 S16G23    29.73R
OSCEOLA        CLOUDY    61  61 100 S16G23    29.74S
$$

WIZ003>005-009-010-017-018-211800-
NORTH CENTRAL WISCONSIN

CITY           SKY/WX    TMP DP  RH WIND       PRES   REMARKS
MANITOWISH WTR PTSUNNY   62  54  74 S14       29.82F
ARBOR VITAE    MOSUNNY   63  53  70 S16       29.84F
WOODRUFF       MOSUNNY   63  53  70 S16       29.84F
RHINELANDER    CLOUDY    63  55  75 S10G18    29.87F
EAGLE RIVER    NOT AVBL
LAND O LAKES   MOSUNNY   64  50  60 S10G18    29.88F
PHILLIPS       CLOUDY    63  55  74 S16G22    29.82R
TOMAHAWK       MOSUNNY   62  53  73 S7        29.86F
MEDFORD        CLOUDY    62  53  72 S16       29.84F
MERRILL        CLOUDY    62  56  81 SE6       29.87F
$$

WIZ029-030-035-036-043>047-211800-
CENTRAL WISCONSIN

CITY           SKY/WX    TMP DP  RH WIND       PRES   REMARKS
WAUSAU         PTSUNNY   65  56  72 S12       29.85F
MOSINEE        NOT AVBL
MARSHFIELD     CLOUDY    65  54  67 S15G30    29.84F
STEVENS POINT  CLOUDY    61  56  83 S7        29.89F
WAUPACA        SUNNY     72  53  50 S13       29.94F
WAUTOMA        SUNNY    N/A N/A N/A S10G21    29.92F
WISC RAPIDS    PTSUNNY   69  58  67 SW13      29.87F
CAMP DOUGLAS   NOT AVBL
$$

WIZ011>013-019>022-031-037>040-048>050-211800-
NORTHEAST WISCONSIN

CITY           SKY/WX    TMP DP  RH WIND       PRES   REMARKS
ANTIGO         LGT RAIN  62  55  75 S9G16     29.93S
SHAWANO        SUNNY     71  53  51 S6        29.94S
OCONTO         SUNNY     67  51  55 S10G16    29.95S
STURGEON BAY   MOSUNNY   63  53  70 S21G31    29.97S
GREEN BAY      SUNNY     70  52  52 S18G26    29.95F
MANITOWOC      MOSUNNY   61  53  75 S14       29.99S
APPLETON       MOSUNNY   70  48  46 S16G23    29.94F
CLINTONVILLE   NOT AVBL
OSHKOSH        SUNNY     69  53  56 S18       29.94F
$$

WIZ032>034-041-042-053>061-211800-
SOUTHWEST WISCONSIN

CITY           SKY/WX    TMP DP  RH WIND       PRES   REMARKS
LA CROSSE      CLOUDY    67  56  67 S16G26    29.83S
SPARTA         CLOUDY    66  56  69 S12G24    29.86F
VIROQUA        CLOUDY    65  56  74 S12G21    29.88S
BOSCOBEL       SUNNY     74  55  51 S9G18     29.87F
PRAIRIE DU CHI CLOUDY    69  53  55 SE9       29.86F
PLATTEVILLE    SUNNY     72  56  58 S22       29.91F
$$

WIZ056-057-062-063-064-067-068-211800-
SOUTH CENTRAL WISCONSIN

CITY           SKY/WX    TMP DP  RH WIND       PRES   REMARKS
REEDSBURG      SUNNY     71  55  58 S17G23    29.90F
BARABOO/DELLS  SUNNY     69  53  56 S16G22    29.92F
LONE ROCK      NOT AVBL
MINERAL POINT  SUNNY     72  55  56 S17G23    29.92F
MADISON        MOSUNNY   69  55  60 S13       29.94F
MIDDLETON      SUNNY     71  55  56 S16G22    29.95F
WATERTOWN      MOSUNNY   69  54  60 S15G23    29.97F
MONROE         SUNNY     70  54  56 S20G26    29.96F
JANESVILLE     MOSUNNY   73  54  49 S14G20    29.97F
$$

WIZ051-052-058>065-066-070>072-211800-
SOUTHEAST WISCONSIN

CITY           SKY/WX    TMP DP  RH WIND       PRES   REMARKS
MILWAUKEE      CLOUDY    70  54  56 S13       30.01F
WAUKESHA       SUNNY     66  52  59 S9G23     30.01F
MILWAUKEE/TIMM SUNNY     66  48  52 S8G17     30.01F
RACINE         CLOUDY    67  54  63 SE13      30.03F
BURLINGTON     MOSUNNY   72  55  55 S14G24    30.01F
KENOSHA        CLOUDY    70  53  54 S15G24    30.02F
FOND DU LAC    SUNNY     70  50  49 S15G23    29.95F
SHEBOYGAN      MOSUNNY   67  55  65 S12       29.98F
WEST BEND      MOSUNNY   68  50  52 S12G18    29.99F
JUNEAU         SUNNY     67  53  59 S13G21    29.98F
$$

LSZ147-162-211800-
LAKE SUPERIOR

STATION/POSITION TIME  TEMP    WIND        PRES    WAVE
                       AIR SEA DIR/SP/G            HT/PER
                 (UTC) (F)     (DEG/KT/KT) (MB)    (FT/S)
W MID LAKE BUOY  1550   57 52              1007.6F   2/ 3
DEVILS ISLAND    1600   63     180/ 14/ 19 1007.2R
PORT WING        1620          170/ 13     1005.4F
SAXON HARBOR     1630   68     190/ 10/ 20 1006.1F
$$

LMZ867-665-643>646-211800-
LAKE MICHIGAN

STATION/POSITION TIME  TEMP    WIND        PRES    WAVE
                       AIR SEA DIR/SP/G            HT/PER
                 (UTC) (F)     (DEG/KT/KT) (MB)    (FT/S)
S GREEN BAY BUOY 1630   63 58  180/ 12/ 16 1014.2R
N MID LAKE BUOY  1550   60 58  180/ 19/ 25 1015.9R   5/ 6
NORTHPORT PIER   1640   62     160/ 13/ 20 1014.9S
KEWAUNEE LAKESHO 1630   54     180/  9/ 11 1014.9S
SHEBOYGAN LAKESH 1600   54     180/ 19/ 20 1015.6F
PORT WASHINGTON  1640   59     180/  6/  8 1016.9F
ATWATER BUOY     1509   56 53  160/ 12/ 14 1016.6
MILWAUKEE LAKESH 1630   65     200/ 14/ 15   N/A
S MID LAKE BUOY  1550   62 60  180/ 19/ 21 1018.2R   4/ 5
KENOSHA   LAKESH 1600   60     180/ 12/ 17 1017.3
$$

TC  - TEMPERATURE IN CELSIUS
VSB - VISIBILITY IN STATUTE MILES
WCI - WIND CHILL INDEX
HX  - HEAT INDEX





USA.gov is the U.S. government's official web portal to all federal, state and local government web resources and services.